Location: Newark
(48.2308°N, 120.8549°W)
Time: 02:38:38
(UTC+00:00)

FENGYUN 1C DEB - Pass Details

Date: 29 January 2022
Orbit: 822 x 948 km, 99.2° (Epoch: 28 May)

Event Time Altitude Azimuth Distance (km) Brightness Sun altitude
Rises 05:04:37 0° 219° (SW) 3,613 ? -40.8°
Reaches altitude 10° 05:08:25 10° 243° (WSW) 2,675 ? -41.4°
Maximum altitude 05:11:28 14° 274° (W) 2,380 ? -41.9°
Drops below altitude 10° 05:14:32 10° 305° (NW) 2,672 ? -42.4°
Sets 05:18:21 0° 329° (NNW) 3,606 ? -43.0°
